TimeEDT,TemperatureF,Dew PointF,Humidity,Sea Level PressureIn,VisibilityMPH,Wind Direction,Wind SpeedMPH,Gust SpeedMPH,PrecipitationIn,Events,Conditions,WindDirDegrees,DateUTC
12:54 AM,50.0,37.0,61,30.14,10.0,Calm,Calm,-,N/A,,Overcast,0,2012-10-14 04:54:00
1:54 AM,48.9,37.9,66,30.13,10.0,North,3.5,-,N/A,,Overcast,350,2012-10-14 05:54:00
2:54 AM,48.9,37.9,66,30.12,10.0,Calm,Calm,-,N/A,,Overcast,0,2012-10-14 06:54:00
3:54 AM,48.0,39.0,71,30.11,10.0,North,4.6,-,0.00,Rain,Light Rain,360,2012-10-14 07:54:00
4:54 AM,46.9,43.0,86,30.09,10.0,North,5.8,-,0.00,Rain,Light Rain,360,2012-10-14 08:54:00
5:54 AM,46.9,44.1,90,30.10,10.0,North,3.5,-,0.00,,Overcast,10,2012-10-14 09:54:00
6:54 AM,46.9,45.0,93,30.10,10.0,Calm,Calm,-,N/A,,Mostly Cloudy,0,2012-10-14 10:54:00
7:54 AM,46.9,46.0,97,30.11,10.0,North,3.5,-,N/A,,Overcast,360,2012-10-14 11:54:00
8:54 AM,50.0,46.0,86,30.12,10.0,Calm,Calm,-,N/A,,Overcast,0,2012-10-14 12:54:00
9:54 AM,57.9,48.0,70,30.09,10.0,North,3.5,-,N/A,,Overcast,360,2012-10-14 13:54:00
10:54 AM,66.0,51.1,59,30.07,10.0,SW,9.2,-,N/A,,Mostly Cloudy,220,2012-10-14 14:54:00
11:05 AM,64.4,51.8,64,30.06,10.0,SSW,6.9,-,N/A,,Mostly Cloudy,210,2012-10-14 15:05:00
11:54 AM,68.0,53.1,59,30.04,10.0,SSW,9.2,17.3,N/A,,Overcast,210,2012-10-14 15:54:00
12:54 PM,69.1,54.0,58,30.01,10.0,SSW,12.7,21.9,N/A,,Mostly Cloudy,200,2012-10-14 16:54:00
1:54 PM,71.1,55.0,57,29.97,10.0,SSW,10.4,18.4,N/A,,Overcast,200,2012-10-14 17:54:00
2:54 PM,73.9,55.0,52,29.93,10.0,SW,11.5,24.2,N/A,,Mostly Cloudy,220,2012-10-14 18:54:00
3:54 PM,63.0,55.0,75,29.91,10.0,SSW,10.4,20.7,N/A,,Mostly Cloudy,210,2012-10-14 19:54:00
4:54 PM,72.0,53.1,51,29.88,10.0,Variable,4.6,-,N/A,,Clear,0,2012-10-14 20:54:00
5:54 PM,71.1,52.0,51,29.86,10.0,South,8.1,18.4,N/A,,Clear,170,2012-10-14 21:54:00
6:54 PM,68.0,51.1,55,29.86,10.0,South,9.2,21.9,N/A,,Clear,170,2012-10-14 22:54:00
7:54 PM,66.0,51.1,59,29.86,10.0,Variable,4.6,-,N/A,,Clear,0,2012-10-14 23:54:00
8:54 PM,64.0,51.1,63,29.84,10.0,South,5.8,-,N/A,,Clear,190,2012-10-15 00:54:00
9:54 PM,64.0,51.1,63,29.81,10.0,South,9.2,-,N/A,,Scattered Clouds,190,2012-10-15 01:54:00
10:54 PM,64.0,51.1,63,29.79,10.0,South,9.2,-,N/A,,Overcast,180,2012-10-15 02:54:00
11:54 PM,64.0,51.1,63,29.76,10.0,SSW,6.9,-,0.00,,Mostly Cloudy,210,2012-10-15 03:54:00